Regional Weather Roundup
Issued by NWS Albany, NY

Home | Current Version | Previous Version | Text Only | Print | Product List | Glossary On
Versions: 1 2 3 4 5 6 7 8 9 10 11 12 13 14 15 16 17 18 19 20 21 22 23 24 25 26 27 28
000
ASUS41 KALY 191910
RWRALY

NEW YORK STATE HOURLY WEATHER ROUNDUP
NATIONAL WEATHER SERVICE ALBANY NY
300 PM EDT SAT MAY 19 2018

NOTE: "FAIR" INDICATES FEW OR NO CLOUDS BELOW 12,000 FEET WITH NO
SIGNIFICANT WEATHER AND/OR NO OBSTRUCTIONS TO VISIBILITY.

NYZ032-033-038>043-046>054-057>066-NYZ062>081-082-084-192000-
EAST


CITY           SKY/WX    TMP DP  RH WIND       PRES   REMARKS
ALBANY         LGT RAIN  53  50  89 S3        30.19F FOG
GLENS FALLS    RAIN      49  48  97 NW3       30.19F FOG
POUGHKEEPSIE   LGT RAIN  54  51  90 CALM      30.18F FOG
NEWBURGH       LGT RAIN  54  54 100 CALM      30.21F FOG
MONTGOMERY     LGT RAIN  52  50  93 NW3       30.19F FOG
WHITE PLAINS   DRIZZLE   52  51  97 E13       30.20S FOG
ISLIP          RAIN      53  53 100 E10       30.19F VSB 1/2
NEW YORK CITY  DRIZZLE   54  53  97 NE10      30.20F FOG
CENTRAL PARK   CLOUDY    55  54  96 CALM      30.22F FOG
$$

NYZ005>009-017-018-044>046-055-056-192000-
CENTRAL


CITY           SKY/WX    TMP DP  RH WIND       PRES   REMARKS
FULTON         CLOUDY    54  50  86 SE9       30.03F
SYRACUSE       LGT RAIN  53  53 100 E8        30.05F
ROME           LGT RAIN  50  48  93 E16       30.12F FOG
ELMIRA         CLOUDY    61  56  83 S10       30.06F
BINGHAMTON     LGT RAIN  51  50  96 S10       30.10F
$$

NYZ026>034-041>043-087-192000-
NORTH


CITY           SKY/WX    TMP DP  RH WIND       PRES   REMARKS
WATERTOWN      CLOUDY    59  54  83 S6        30.01F
FORT DRUM      NOT AVBL
MASSENA        LGT RAIN  59  56  89 SE7       30.07F FOG
SARANAC LAKE   CLOUDY    55  53  93 SE12G18   30.07F
PLATTSBURGH    LGT RAIN  52  45  77 S10       30.15F
$$

NYZ001>004-010>016-019>021-085-192000-
WEST


CITY           SKY/WX    TMP DP  RH WIND       PRES   REMARKS
NIAGARA FALLS  LGT RAIN  66  59  78 S6        29.92F
BUFFALO        LGT RAIN  73  61  65 S10       29.93F
DUNKIRK        PTSUNNY   68  61  78 S17       29.92F
JAMESTOWN      CLOUDY    63  58  83 S8        29.98F
WELLSVILLE     CLOUDY    62  55  77 S15G23    30.03F
ROCHESTER      PTSUNNY   68  58  70 S13       29.96F
PENN YAN       CLOUDY    61  53  75 S14G20    30.03F
$$

             KEY
       WCI = WIND CHILL INDEX
       VSB = VISIBILITY
       HX  = HEAT INDEX
$$




USA.gov is the U.S. government's official web portal to all federal, state and local government web resources and services.